Jacksonville Craig, FL

4:09 PM EST on January 22, 2018 (GMT -0500)
Craig Municipal

Weather History for KCRG - September, 2012

Change the Weather History Date:

Thursday, September 13, 2012

  Actual Average Record
Temperature  
Mean Temperature 76 °F -  
Max Temperature 82 °F 84 °F 93 °F (2011)
Min Temperature 71 °F 69 °F 64 °F (1998)
Cooling Degree Days 11    
Growing Degree Days 26 (Base 50)    
Moisture  
Dew Point 70 °F    
Average Humidity 83    
Maximum Humidity 94    
Minimum Humidity 72    
Precipitation  
Precipitation 1.06 in - - ()
Sea Level Pressure  
Sea Level Pressure 30.15 in    
Wind  
Wind Speed 7 mph (NE)    
Max Wind Speed 18 mph    
Max Gust Speed 28 mph    
Visibility 7 miles    
Events Rain    
Averages and records for this station are not official NWS values.
T = Trace of Precipitation, MM = Missing Value Source: NWS Daily Summary

Daily Weather History Graph

Daily Weather History Graph

Search for Another Location

Airport or City:

Trip Planner

Search our weather history database for the weather conditions in past years. The results will help you decide how hot, cold, wet, or windy it might be!

Date:

Astronomy

Sep. 13, 2012 Rise Set
Actual Time 7:09 AM EDT 7:33 PM EDT
Civil Twilight 6:45 AM EDT 7:57 PM EDT
Nautical Twilight 6:17 AM EDT 8:25 PM EDT
Astronomical Twilight 5:48 AM EDT 8:54 PM EDT
Moon 4:36 AM EDT (9/13) 5:49 PM EDT (9/13)
Length of Visible Light 13h 11m
Length of Day
12h 23m
Waning Crescent, 7% of the Moon is Illuminated
Sep 13
Waning Crescent
Sep 15
New
Sep 22
First Quarter
Sep 29
Full
Oct 8
Last Quarter

Hourly Weather History & Observations

Time (EDT) Temp. Heat Index Dew Point Humidity Pressure Visibility Wind Dir Wind Speed Gust Speed Precip Events Conditions
12:53 AM 78.1 °F - 70.0 °F 76% 30.17 in 10.0 mi NE 9.2 mph - N/A   Scattered Clouds
1:53 AM 78.1 °F - 70.0 °F 76% 30.16 in 10.0 mi NE 8.1 mph - N/A   Mostly Cloudy
2:53 AM 77.0 °F - 69.1 °F 76% 30.15 in 10.0 mi NE 6.9 mph - 0.00 in   Mostly Cloudy
3:53 AM 75.0 °F - 69.1 °F 82% 30.13 in 10.0 mi NE 3.5 mph - N/A   Clear
4:53 AM 75.0 °F - 66.9 °F 76% 30.13 in 10.0 mi East 4.6 mph - N/A   Scattered Clouds
5:53 AM 75.0 °F - 69.1 °F 82% 30.14 in 10.0 mi North 4.6 mph - N/A   Overcast
6:53 AM 75.0 °F - 71.1 °F 87% 30.16 in 10.0 mi North 4.6 mph - N/A   Overcast
7:53 AM 75.0 °F - 71.1 °F 87% 30.16 in 10.0 mi NNW 5.8 mph - 0.00 in Rain Light Rain
8:20 AM 75.2 °F - 69.8 °F 83% 30.17 in 7.0 mi NNW 6.9 mph - 0.00 in Rain Light Rain
8:53 AM 75.0 °F - 68.0 °F 79% 30.18 in 8.0 mi SE 5.8 mph - 0.01 in   Overcast
9:20 AM 71.6 °F - 69.8 °F 94% 30.18 in 3.0 mi SSW 3.5 mph - 0.04 in Rain Light Rain
9:53 AM 73.0 °F - 69.1 °F 87% 30.19 in 1.5 mi NE 10.4 mph - 0.12 in Rain Rain
10:05 AM 71.6 °F - 68.0 °F 88% 30.19 in 4.0 mi NNE 8.1 mph - 0.03 in Rain Light Rain
10:53 AM 75.9 °F - 70.0 °F 82% 30.19 in 10.0 mi North 6.9 mph - 0.06 in   Overcast
11:53 AM 78.1 °F - 70.0 °F 76% 30.19 in 10.0 mi NE 6.9 mph - 0.00 in   Mostly Cloudy
12:40 PM 77.0 °F - 71.6 °F 83% 30.18 in 1.8 mi NE 11.5 mph - 0.06 in Rain Heavy Rain
12:53 PM 73.9 °F - 71.1 °F 91% 30.18 in 1.0 mi North 9.2 mph - 0.23 in Rain Heavy Rain
1:01 PM 75.2 °F - 71.6 °F 89% 30.18 in 4.0 mi NW 5.8 mph - 0.00 in Rain Light Rain
1:53 PM 77.0 °F - 72.0 °F 84% 30.16 in 2.0 mi SE 3.5 mph - 0.05 in Rain Heavy Rain
2:01 PM 77.0 °F - 71.6 °F 83% 30.15 in 4.0 mi Calm Calm - 0.00 in Rain Light Rain
2:51 PM 78.8 °F - 71.6 °F 78% 30.14 in 2.5 mi NNE 8.1 mph - 0.04 in Rain Heavy Rain
2:53 PM 78.1 °F - 72.0 °F 81% 30.14 in 2.5 mi NNE 6.9 mph - 0.04 in Rain Heavy Rain
3:02 PM 78.8 °F - 73.4 °F 83% 30.13 in 4.0 mi Calm Calm - 0.00 in Rain Light Rain
3:34 PM 77.0 °F - 71.6 °F 83% 30.13 in 0.8 mi ENE 8.1 mph 19.6 mph 0.26 in Rain Heavy Rain
3:45 PM 75.2 °F - 71.6 °F 89% 30.13 in 2.0 mi ESE 6.9 mph - 0.33 in Rain Light Rain
3:53 PM 75.9 °F - 71.1 °F 85% 30.12 in 6.0 mi East 8.1 mph - 0.33 in Rain Light Rain
4:00 PM 77.0 °F - 71.6 °F 83% 30.12 in 10.0 mi East 8.1 mph - N/A   Overcast
4:53 PM 79.0 °F - 72.0 °F 79% 30.12 in 10.0 mi ENE 5.8 mph - 0.00 in   Overcast
5:53 PM 81.0 °F 84.9 °F 71.1 °F 72% 30.11 in 10.0 mi NE 6.9 mph - N/A   Mostly Cloudy
6:53 PM 78.1 °F - 69.1 °F 74% 30.11 in 10.0 mi NE 9.2 mph - 0.00 in   Partly Cloudy
7:53 PM 78.1 °F - 71.1 °F 79% 30.10 in 10.0 mi NE 9.2 mph - N/A   Overcast
8:15 PM 73.4 °F - 69.8 °F 88% 30.12 in 2.5 mi East 16.1 mph 27.6 mph 0.09 in Rain Heavy Rain
8:17 PM 73.4 °F - 69.8 °F 88% 30.12 in 6.0 mi East 18.4 mph 27.6 mph 0.12 in Rain Heavy Rain
8:24 PM 73.4 °F - 69.8 °F 88% 30.12 in 6.0 mi East 15.0 mph 24.2 mph 0.17 in Rain Heavy Rain
8:38 PM 73.4 °F - 69.8 °F 88% 30.13 in 6.0 mi ENE 11.5 mph 19.6 mph 0.21 in Rain Rain
8:53 PM 73.9 °F - 66.9 °F 79% 30.12 in 10.0 mi NE 5.8 mph - 0.22 in   Overcast
9:53 PM 75.0 °F - 70.0 °F 84% 30.13 in 10.0 mi ENE 4.6 mph - N/A   Partly Cloudy
10:53 PM 75.9 °F - 71.1 °F 85% 30.14 in 9.0 mi East 6.9 mph - 0.00 in Rain Light Rain
11:53 PM 75.0 °F - 71.1 °F 87% 30.14 in 9.0 mi East 9.2 mph - 0.00 in Rain Light Rain